• In Deutschland
  • Länderverzeichnis
  • Für 7 Tage
  • Wassertemperatur
  • Satellitenkarten
  • Wetterkarte
  • Widgets
  • user-avatar
    Anmelden

    Stündliche Wetter Gomel

    Heute, 21 Juli, Freitag

    Zeit Temperatur Niederschläge Wind Luftdruck Luftfeuchtigkeit
    00:00 +17°C° 0 mm 2 m/S 748 mmHg 94%
    01:00 +17°C° 0 mm 2 m/S 748 mmHg 95%
    02:00 +16°C° 0 mm 1 m/S 748 mmHg 95%
    03:00 +16°C° 0 mm 1 m/S 748 mmHg 95%
    04:00 +16°C° 0 mm 1 m/S 748 mmHg 94%
    05:00 +16°C° 0 mm 1 m/S 748 mmHg 94%
    06:00 +19°C° 0 mm 1 m/S 748 mmHg 88%
    07:00 +21°C° 0 mm 1 m/S 748 mmHg 81%
    08:00 +23°C° 0 mm 1 m/S 748 mmHg 75%
    09:00 +24°C° 0,4 mm 1 m/S 748 mmHg 70%
    10:00 +26°C° 0,4 mm 1 m/S 748 mmHg 65%
    11:00 +27°C° 0,4 mm 2 m/S 748 mmHg 60%
    12:00 +28°C° 1,6 mm 1 m/S 748 mmHg 61%
    13:00 +28°C° 1,6 mm 1 m/S 748 mmHg 61%
    14:00 +28°C° 1,6 mm 1 m/S 748 mmHg 61%
    15:00 +28°C° 0,3 mm 1 m/S 748 mmHg 61%
    16:00 +28°C° 0,3 mm 1 m/S 748 mmHg 61%
    17:00 +28°C° 0,3 mm 1 m/S 748 mmHg 60%
    18:00 +26°C° 0,2 mm 2 m/S 748 mmHg 67%
    19:00 +25°C° 0,2 mm 2 m/S 748 mmHg 75%
    20:00 +22°C° 0,2 mm 3 m/S 748 mmHg 82%
    21:00 +21°C° 0,4 mm 3 m/S 749 mmHg 83%
    22:00 +20°C° 0,4 mm 3 m/S 749 mmHg 85%
    23:00 +19°C° 0,4 mm 3 m/S 749 mmHg 87%

    Morgen, 22 Juli, Samstag

    Zeit Temperatur Niederschläge Wind Luftdruck Luftfeuchtigkeit
    00:00 +18°C° 0,4 mm 3 m/S 749 mmHg 86%
    01:00 +18°C° 0,4 mm 3 m/S 749 mmHg 84%
    02:00 +18°C° 0,4 mm 3 m/S 749 mmHg 83%
    03:00 +17°C° 0,6 mm 3 m/S 748 mmHg 86%
    04:00 +17°C° 0,6 mm 3 m/S 748 mmHg 89%
    05:00 +17°C° 0,6 mm 3 m/S 748 mmHg 92%
    06:00 +17°C° 0,8 mm 3 m/S 748 mmHg 92%
    07:00 +17°C° 0,8 mm 3 m/S 748 mmHg 92%
    08:00 +17°C° 0,8 mm 3 m/S 748 mmHg 92%
    09:00 +17°C° 0,8 mm 4 m/S 748 mmHg 92%
    10:00 +17°C° 0,8 mm 4 m/S 748 mmHg 92%
    11:00 +17°C° 0,8 mm 4 m/S 748 mmHg 91%
    12:00 +18°C° 0,2 mm 4 m/S 749 mmHg 87%
    13:00 +19°C° 0,2 mm 4 m/S 749 mmHg 83%
    14:00 +20°C° 0,2 mm 4 m/S 749 mmHg 79%
    15:00 +20°C° 0 mm 4 m/S 749 mmHg 76%
    16:00 +20°C° 0 mm 4 m/S 749 mmHg 73%
    17:00 +21°C° 0 mm 4 m/S 749 mmHg 71%
    18:00 +19°C° 0 mm 3 m/S 750 mmHg 76%
    19:00 +18°C° 0 mm 2 m/S 750 mmHg 81%
    20:00 +18°C° 0 mm 1 m/S 750 mmHg 87%
    21:00 +16°C° 0 mm 1 m/S 750 mmHg 88%
    22:00 +16°C° 0 mm 1 m/S 751 mmHg 89%
    23:00 +15°C° 0 mm 1 m/S 751 mmHg 90%

    übermorgen, 23 Juli, Sonntag

    Zeit Temperatur Niederschläge Wind Luftdruck Luftfeuchtigkeit
    00:00 +15°C° 0 mm 1 m/S 751 mmHg 91%
    01:00 +14°C° 0 mm 1 m/S 751 mmHg 91%
    02:00 +14°C° 0 mm 2 m/S 751 mmHg 92%
    03:00 +14°C° 0 mm 2 m/S 751 mmHg 91%
    04:00 +14°C° 0 mm 2 m/S 751 mmHg 91%
    05:00 +14°C° 0 mm 2 m/S 751 mmHg 90%
    06:00 +16°C° 0 mm 2 m/S 751 mmHg 83%
    07:00 +18°C° 0 mm 2 m/S 752 mmHg 75%
    08:00 +20°C° 0 mm 2 m/S 752 mmHg 68%
    09:00 +21°C° 0 mm 2 m/S 752 mmHg 62%
    10:00 +23°C° 0 mm 2 m/S 752 mmHg 56%
    11:00 +25°C° 0 mm 2 m/S 751 mmHg 50%
    12:00 +25°C° 0 mm 2 m/S 751 mmHg 48%
    13:00 +26°C° 0 mm 2 m/S 751 mmHg 45%
    14:00 +26°C° 0 mm 1 m/S 751 mmHg 43%
    15:00 +26°C° 0 mm 1 m/S 751 mmHg 44%
    16:00 +26°C° 0 mm 1 m/S 751 mmHg 45%
    17:00 +26°C° 0 mm 1 m/S 750 mmHg 46%
    18:00 +24°C° 0 mm 1 m/S 750 mmHg 52%
    19:00 +22°C° 0 mm 1 m/S 750 mmHg 58%
    20:00 +20°C° 0 mm 1 m/S 750 mmHg 63%
    21:00 +19°C° 0 mm 1 m/S 751 mmHg 66%
    22:00 +19°C° 0 mm 1 m/S 751 mmHg 68%
    23:00 +18°C° 0 mm 1 m/S 751 mmHg 71%

    24 Juli, Montag

    Zeit Temperatur Niederschläge Wind Luftdruck Luftfeuchtigkeit
    00:00 +16°C° 0 mm 1 m/S 751 mmHg 73%
    01:00 +16°C° 0 mm 1 m/S 750 mmHg 76%
    02:00 +16°C° 0 mm 1 m/S 750 mmHg 78%
    03:00 +15°C° 0 mm 1 m/S 750 mmHg 79%
    04:00 +15°C° 0 mm 1 m/S 750 mmHg 81%
    05:00 +15°C° 0 mm 1 m/S 750 mmHg 82%
    06:00 +18°C° 0 mm 1 m/S 750 mmHg 77%
    07:00 +19°C° 0 mm 2 m/S 750 mmHg 72%
    08:00 +21°C° 0 mm 2 m/S 750 mmHg 66%
    09:00 +24°C° 0 mm 2 m/S 750 mmHg 61%
    10:00 +25°C° 0 mm 2 m/S 749 mmHg 56%
    11:00 +26°C° 0 mm 2 m/S 749 mmHg 51%
    12:00 +27°C° 0 mm 2 m/S 749 mmHg 50%
    13:00 +28°C° 0 mm 2 m/S 748 mmHg 48%
    14:00 +28°C° 0 mm 2 m/S 748 mmHg 47%
    15:00 +28°C° 0 mm 2 m/S 748 mmHg 50%
    16:00 +27°C° 0 mm 2 m/S 748 mmHg 53%
    17:00 +27°C° 0 mm 2 m/S 747 mmHg 56%
    18:00 +25°C° 0 mm 2 m/S 747 mmHg 61%
    19:00 +24°C° 0 mm 2 m/S 747 mmHg 66%
    20:00 +21°C° 0 mm 2 m/S 747 mmHg 72%
    21:00 +21°C° 0 mm 2 m/S 747 mmHg 73%
    22:00 +20°C° 0 mm 3 m/S 747 mmHg 75%
    23:00 +19°C° 0 mm 3 m/S 746 mmHg 76%

    25 Juli, Dienstag

    Zeit Temperatur Niederschläge Wind Luftdruck Luftfeuchtigkeit
    00:00 +19°C° 0 mm 3 m/S 746 mmHg 78%
    01:00 +18°C° 0 mm 3 m/S 746 mmHg 79%
    02:00 +18°C° 0 mm 3 m/S 746 mmHg 81%
    03:00 +18°C° 0 mm 3 m/S 746 mmHg 81%
    04:00 +18°C° 0 mm 3 m/S 746 mmHg 80%
    05:00 +18°C° 0 mm 3 m/S 746 mmHg 80%
    06:00 +19°C° 0 mm 3 m/S 746 mmHg 78%
    07:00 +20°C° 0 mm 4 m/S 745 mmHg 75%
    08:00 +21°C° 0 mm 4 m/S 745 mmHg 72%
    09:00 +21°C° 0,1 mm 4 m/S 745 mmHg 73%
    10:00 +22°C° 0,1 mm 4 m/S 745 mmHg 73%
    11:00 +23°C° 0,1 mm 4 m/S 745 mmHg 74%
    12:00 +26°C° 0,1 mm 5 m/S 745 mmHg 69%
    13:00 +27°C° 0,1 mm 5 m/S 744 mmHg 63%
    14:00 +29°C° 0,1 mm 5 m/S 744 mmHg 58%
    15:00 +29°C° 0,6 mm 5 m/S 744 mmHg 60%
    16:00 +29°C° 0,6 mm 5 m/S 744 mmHg 61%
    17:00 +30°C° 0,6 mm 4 m/S 743 mmHg 63%
    18:00 +28°C° 0,2 mm 4 m/S 743 mmHg 68%
    19:00 +27°C° 0,2 mm 4 m/S 743 mmHg 72%
    20:00 +25°C° 0,2 mm 4 m/S 743 mmHg 77%
    21:00 +23°C° 0,5 mm 4 m/S 743 mmHg 80%
    22:00 +22°C° 0,5 mm 4 m/S 744 mmHg 84%
    23:00 +22°C° 0,5 mm 4 m/S 744 mmHg 87%

    26 Juli, Mittwoch

    Zeit Temperatur Niederschläge Wind Luftdruck Luftfeuchtigkeit
    00:00 +21°C° 0,7 mm 4 m/S 744 mmHg 88%
    01:00 +21°C° 0,7 mm 4 m/S 744 mmHg 90%
    02:00 +20°C° 0,7 mm 4 m/S 744 mmHg 91%
    03:00 +20°C° 0,1 mm 4 m/S 744 mmHg 91%
    04:00 +20°C° 0,1 mm 4 m/S 744 mmHg 91%
    05:00 +20°C° 0,1 mm 4 m/S 744 mmHg 90%
    06:00 +21°C° 0 mm 4 m/S 744 mmHg 86%
    07:00 +23°C° 0 mm 4 m/S 745 mmHg 82%
    08:00 +25°C° 0 mm 4 m/S 745 mmHg 78%
    09:00 +27°C° 0,1 mm 4 m/S 745 mmHg 70%
    10:00 +29°C° 0,1 mm 4 m/S 745 mmHg 63%
    11:00 +32°C° 0,1 mm 4 m/S 745 mmHg 55%
    12:00 +32°C° 0 mm 4 m/S 745 mmHg 52%
    13:00 +33°C° 0 mm 4 m/S 745 mmHg 48%
    14:00 +34°C° 0 mm 5 m/S 745 mmHg 44%
    15:00 +34°C° 0 mm 4 m/S 745 mmHg 47%
    16:00 +33°C° 0 mm 4 m/S 745 mmHg 50%
    17:00 +33°C° 0 mm 3 m/S 745 mmHg 54%
    18:00 +30°C° 0,1 mm 3 m/S 745 mmHg 59%
    19:00 +28°C° 0,1 mm 3 m/S 745 mmHg 65%
    20:00 +27°C° 0,1 mm 3 m/S 746 mmHg 71%
    21:00 +26°C° 0,7 mm 3 m/S 746 mmHg 74%
    22:00 +25°C° 0,7 mm 3 m/S 746 mmHg 78%
    23:00 +24°C° 0,7 mm 3 m/S 746 mmHg 81%
    Mehr zeigen